• In Uzbekistan
  • List of Countries
  • For 7 days
  • Water Temperature
  • Satellite Maps
  • Weather Map
  • Weather Widgets
  • user-avatar
    Login

    Hourly Weather Prutz

    Today, 26 June, Wednesday

    Time Temperature Precipitation Wind Pressure Humidity
    00:00 +16°C° 0 mm 1 mps 641 mmHg 64%
    01:00 +16°C° 0 mm 1 mps 641 mmHg 61%
    02:00 +16°C° 0 mm 1 mps 641 mmHg 58%
    03:00 +15°C° 0 mm 1 mps 641 mmHg 55%
    04:00 +15°C° 0 mm 1 mps 641 mmHg 52%
    05:00 +19°C° 0 mm 1 mps 642 mmHg 47%
    06:00 +20°C° 0 mm 0 mps 643 mmHg 41%
    07:00 +22°C° 0 mm 0 mps 644 mmHg 36%
    08:00 +26°C° 0 mm 1 mps 645 mmHg 32%
    09:00 +28°C° 0 mm 1 mps 645 mmHg 29%
    10:00 +29°C° 0 mm 1 mps 646 mmHg 25%
    11:00 +30°C° 0 mm 2 mps 646 mmHg 25%
    12:00 +31°C° 0 mm 2 mps 646 mmHg 24%
    13:00 +31°C° 0 mm 2 mps 646 mmHg 23%
    14:00 +31°C° 0 mm 2 mps 646 mmHg 25%
    15:00 +31°C° 0 mm 3 mps 646 mmHg 26%
    16:00 +30°C° 0 mm 3 mps 645 mmHg 28%
    17:00 +29°C° 0 mm 2 mps 645 mmHg 37%
    18:00 +27°C° 0 mm 2 mps 644 mmHg 47%
    19:00 +26°C° 0 mm 1 mps 644 mmHg 56%
    20:00 +23°C° 0 mm 1 mps 643 mmHg 61%
    21:00 +21°C° 0 mm 1 mps 643 mmHg 67%
    22:00 +16°C° 0 mm 0 mps 642 mmHg 72%
    23:00 +18°C° 0 mm 1 mps 642 mmHg 71%

    Tomorrow, 27 June, Thursday

    Time Temperature Precipitation Wind Pressure Humidity
    00:00 +18°C° 0 mm 1 mps 642 mmHg 69%
    01:00 +18°C° 0 mm 1 mps 642 mmHg 68%
    02:00 +18°C° 0 mm 1 mps 641 mmHg 66%
    03:00 +16°C° 0 mm 1 mps 641 mmHg 65%
    04:00 +16°C° 0 mm 1 mps 641 mmHg 63%
    05:00 +20°C° 0 mm 1 mps 642 mmHg 58%
    06:00 +22°C° 0 mm 1 mps 642 mmHg 52%
    07:00 +24°C° 0 mm 1 mps 643 mmHg 47%
    08:00 +26°C° 0 mm 1 mps 644 mmHg 41%
    09:00 +27°C° 0 mm 1 mps 644 mmHg 35%
    10:00 +29°C° 0 mm 2 mps 644 mmHg 29%
    11:00 +29°C° 0 mm 2 mps 644 mmHg 29%
    12:00 +29°C° 0 mm 3 mps 644 mmHg 29%
    13:00 +30°C° 0 mm 3 mps 644 mmHg 29%
    14:00 +29°C° 0 mm 3 mps 644 mmHg 31%
    15:00 +29°C° 0 mm 3 mps 643 mmHg 32%
    16:00 +29°C° 0 mm 3 mps 643 mmHg 34%
    17:00 +27°C° 0.1 mm 3 mps 642 mmHg 45%
    18:00 +25°C° 0.1 mm 3 mps 642 mmHg 56%
    19:00 +24°C° 0.1 mm 2 mps 641 mmHg 67%
    20:00 +20°C° 0.1 mm 2 mps 641 mmHg 74%
    21:00 +19°C° 0.1 mm 1 mps 640 mmHg 81%
    22:00 +16°C° 0.1 mm 1 mps 640 mmHg 88%
    23:00 +16°C° 0 mm 1 mps 639 mmHg 89%

    Day after tomorrow, 28 June, Friday

    Time Temperature Precipitation Wind Pressure Humidity
    00:00 +15°C° 0 mm 1 mps 639 mmHg 89%
    01:00 +15°C° 0 mm 1 mps 639 mmHg 90%
    02:00 +14°C° 0 mm 1 mps 639 mmHg 90%
    03:00 +14°C° 0 mm 1 mps 638 mmHg 90%
    04:00 +14°C° 0 mm 1 mps 638 mmHg 90%
    05:00 +16°C° 0 mm 1 mps 639 mmHg 87%
    06:00 +19°C° 0 mm 1 mps 639 mmHg 83%
    07:00 +21°C° 0 mm 1 mps 640 mmHg 79%
    08:00 +22°C° 0 mm 1 mps 640 mmHg 65%
    09:00 +24°C° 0 mm 1 mps 641 mmHg 52%
    10:00 +25°C° 0 mm 2 mps 641 mmHg 38%
    11:00 +26°C° 0 mm 2 mps 641 mmHg 37%
    12:00 +27°C° 0 mm 2 mps 641 mmHg 35%
    13:00 +27°C° 0 mm 3 mps 641 mmHg 34%
    14:00 +27°C° 0 mm 3 mps 641 mmHg 35%
    15:00 +27°C° 0 mm 3 mps 641 mmHg 37%
    16:00 +27°C° 0 mm 3 mps 640 mmHg 38%
    17:00 +25°C° 0 mm 3 mps 640 mmHg 47%
    18:00 +23°C° 0 mm 2 mps 640 mmHg 55%
    19:00 +21°C° 0 mm 2 mps 639 mmHg 63%
    20:00 +19°C° 0 mm 1 mps 639 mmHg 72%
    21:00 +16°C° 0 mm 1 mps 638 mmHg 80%
    22:00 +12°C° 0 mm 0 mps 637 mmHg 89%
    23:00 +12°C° 0 mm 0 mps 637 mmHg 87%

    29 June, Saturday

    Time Temperature Precipitation Wind Pressure Humidity
    00:00 +12°C° 0 mm 0 mps 637 mmHg 86%
    01:00 +13°C° 0 mm 1 mps 637 mmHg 85%
    02:00 +12°C° 0 mm 1 mps 637 mmHg 81%
    03:00 +12°C° 0 mm 1 mps 636 mmHg 77%
    04:00 +12°C° 0 mm 1 mps 636 mmHg 73%
    05:00 +14°C° 0 mm 1 mps 637 mmHg 63%
    06:00 +18°C° 0 mm 1 mps 638 mmHg 53%
    07:00 +21°C° 0 mm 1 mps 639 mmHg 44%
    08:00 +23°C° 0 mm 1 mps 640 mmHg 39%
    09:00 +25°C° 0 mm 1 mps 640 mmHg 33%
    10:00 +27°C° 0 mm 1 mps 641 mmHg 28%
    11:00 +28°C° 0 mm 1 mps 641 mmHg 27%
    12:00 +28°C° 0 mm 1 mps 641 mmHg 26%
    13:00 +29°C° 0 mm 2 mps 641 mmHg 25%
    14:00 +29°C° 0 mm 2 mps 641 mmHg 27%
    15:00 +29°C° 0 mm 2 mps 641 mmHg 29%
    16:00 +29°C° 0 mm 2 mps 641 mmHg 31%
    17:00 +27°C° 0 mm 2 mps 640 mmHg 42%
    18:00 +26°C° 0 mm 2 mps 640 mmHg 53%
    19:00 +24°C° 0 mm 2 mps 639 mmHg 64%
    20:00 +22°C° 0 mm 1 mps 639 mmHg 72%
    21:00 +19°C° 0 mm 1 mps 638 mmHg 80%
    22:00 +15°C° 0 mm 0 mps 638 mmHg 88%
    23:00 +16°C° 0 mm 1 mps 638 mmHg 87%

    30 June, Sunday

    Time Temperature Precipitation Wind Pressure Humidity
    00:00 +15°C° 0 mm 1 mps 638 mmHg 86%
    01:00 +15°C° 0 mm 1 mps 637 mmHg 86%
    02:00 +15°C° 0 mm 1 mps 637 mmHg 85%
    03:00 +14°C° 0 mm 1 mps 637 mmHg 84%
    04:00 +14°C° 0 mm 1 mps 637 mmHg 83%
    05:00 +16°C° 0 mm 1 mps 638 mmHg 74%
    06:00 +20°C° 0 mm 1 mps 639 mmHg 64%
    07:00 +22°C° 0 mm 1 mps 640 mmHg 55%
    08:00 +24°C° 0 mm 1 mps 640 mmHg 47%
    09:00 +26°C° 0 mm 1 mps 641 mmHg 38%
    10:00 +27°C° 0 mm 1 mps 641 mmHg 30%
    11:00 +28°C° 0 mm 2 mps 641 mmHg 27%
    12:00 +29°C° 0 mm 2 mps 642 mmHg 25%
    13:00 +29°C° 0 mm 2 mps 642 mmHg 22%
    14:00 +29°C° 0 mm 2 mps 642 mmHg 22%
    15:00 +29°C° 0 mm 2 mps 641 mmHg 23%
    16:00 +29°C° 0 mm 2 mps 641 mmHg 24%
    17:00 +27°C° 0 mm 2 mps 641 mmHg 32%
    18:00 +26°C° 0 mm 2 mps 640 mmHg 41%
    19:00 +24°C° 0 mm 1 mps 640 mmHg 50%
    20:00 +22°C° 0 mm 1 mps 639 mmHg 54%
    21:00 +20°C° 0 mm 1 mps 639 mmHg 58%
    22:00 +16°C° 0 mm 1 mps 638 mmHg 62%
    23:00 +16°C° 0 mm 1 mps 638 mmHg 60%

    1 July, Monday

    Time Temperature Precipitation Wind Pressure Humidity
    00:00 +16°C° 0 mm 1 mps 638 mmHg 58%
    01:00 +16°C° 0 mm 2 mps 638 mmHg 56%
    02:00 +16°C° 0 mm 2 mps 638 mmHg 55%
    03:00 +16°C° 0 mm 2 mps 637 mmHg 54%
    04:00 +16°C° 0 mm 2 mps 637 mmHg 54%
    05:00 +18°C° 0 mm 2 mps 638 mmHg 50%
    06:00 +21°C° 0 mm 1 mps 639 mmHg 46%
    07:00 +23°C° 0 mm 1 mps 639 mmHg 42%
    08:00 +25°C° 0 mm 1 mps 640 mmHg 38%
    09:00 +26°C° 0 mm 2 mps 640 mmHg 34%
    10:00 +28°C° 0 mm 2 mps 641 mmHg 30%
    11:00 +28°C° 0 mm 2 mps 641 mmHg 30%
    12:00 +28°C° 0 mm 2 mps 641 mmHg 31%
    13:00 +29°C° 0 mm 2 mps 641 mmHg 32%
    14:00 +26°C° 0.9 mm 2 mps 640 mmHg 45%
    15:00 +24°C° 0.9 mm 3 mps 639 mmHg 58%
    16:00 +21°C° 0.9 mm 3 mps 638 mmHg 72%
    17:00 +19°C° 6.4 mm 3 mps 638 mmHg 78%
    18:00 +17°C° 6.4 mm 2 mps 637 mmHg 84%
    19:00 +15°C° 6.4 mm 2 mps 637 mmHg 89%
    20:00 +15°C° 0 mm 2 mps 637 mmHg 89%
    21:00 +14°C° 0 mm 1 mps 637 mmHg 88%
    22:00 +13°C° 0 mm 1 mps 636 mmHg 87%
    23:00 +14°C° 0 mm 1 mps 637 mmHg 86%
    Show more